Skagway, AK

12:23 AM AKST on February 11, 2016 (GMT -0900)
Skagway

Weather History for PAGY - November, 2011

Change the Weather History Date:

Sunday, November 13, 2011

  Actual Average Record
Temperature  
Mean Temperature 34 °F -  
Max Temperature 37 °F 37 °F 48 °F (2010)
Min Temperature 30 °F 30 °F 4 °F (1989)
Degree Days  
Heating Degree Days 32    
Moisture  
Dew Point 30 °F    
Average Humidity 85    
Maximum Humidity 100    
Minimum Humidity 61    
Precipitation  
Precipitation 0.22 in - - ()
Sea Level Pressure  
Sea Level Pressure 29.23 in    
Wind  
Wind Speed 8 mph (NE)    
Max Wind Speed 26 mph    
Max Gust Speed 26 mph    
Visibility 5 miles    
Events Fog , Rain , Snow    
Averages and records for this station are not official NWS values.
T = Trace of Precipitation, MM = Missing Value Source: NWS Daily Summary

Daily Weather History Graph

Daily Weather History Graph

Search for Another Location

Airport or City:

Trip Planner

Search our weather history database for the weather conditions in past years. The results will help you decide how hot, cold, wet, or windy it might be!

Date:

Astronomy

Nov. 13, 2011 Rise Set
Actual Time 7:50 AM AKST 3:39 PM AKST
Civil Twilight 7:03 AM AKST 4:26 PM AKST
Nautical Twilight 6:13 AM AKST 5:17 PM AKST
Astronomical Twilight 5:24 AM AKST 6:05 PM AKST
Moon 5:24 PM AKST (11/13) 11:01 AM AKST (11/13)
Length of Visible Light 9h 23m
Length of Day
7h 48m
Waning Gibbous, 92% of the Moon is Illuminated
Nov 13
Waning Gibbous
Nov 18
Last Quarter
Nov 24
New
Dec 2
First Quarter
Dec 10
Full

Hourly Weather History & Observations

Time (AKST) Temp. Windchill Dew Point Humidity Pressure Visibility Wind Dir Wind Speed Gust Speed Precip Events Conditions
12:05 AM 33.8 °F - 32.0 °F 93% 28.98 in 10.0 mi Calm Calm - N/A   Overcast
12:53 AM 34.0 °F 31.0 °F 32.0 °F 92% 28.98 in 10.0 mi ENE 3.5 mph - N/A   Overcast
1:11 AM 33.8 °F - 33.8 °F 100% 28.99 in 7.0 mi Calm Calm - 0.00 in Rain Light Rain
1:53 AM 33.1 °F 27.7 °F 32.0 °F 96% 28.99 in 5.0 mi NNE 5.8 mph - 0.03 in Rain Light Rain
2:30 AM 37.4 °F 28.9 °F 33.8 °F 87% 28.99 in 10.0 mi SSW 13.8 mph 23.0 mph 0.01 in   Overcast
2:35 AM 35.6 °F 25.5 °F 33.8 °F 93% 28.99 in 10.0 mi SSW 17.3 mph 23.0 mph 0.01 in   Overcast
3:20 AM 35.6 °F 26.6 °F 33.8 °F 93% 29.03 in 4.0 mi SSW 13.8 mph 26.5 mph 0.01 in Snow Light Snow
3:41 AM 37.4 °F 26.6 °F 32.0 °F 81% 29.01 in 9.0 mi SSW 21.9 mph 26.5 mph 0.03 in   Overcast
3:53 AM 36.0 °F 23.7 °F 33.1 °F 89% 29.02 in 10.0 mi SSW 26.5 mph - 0.03 in   Overcast
4:53 AM 37.0 °F 27.0 °F 34.0 °F 89% 29.05 in 10.0 mi SSW 18.4 mph 24.2 mph N/A   Overcast
5:21 AM 37.4 °F 27.5 °F 33.8 °F 87% 29.06 in 10.0 mi SSW 18.4 mph 24.2 mph N/A   Mostly Cloudy
5:30 AM 37.4 °F 28.2 °F 33.8 °F 87% 29.06 in 10.0 mi SSW 16.1 mph 21.9 mph N/A   Mostly Cloudy
5:53 AM 37.9 °F 29.2 °F 33.1 °F 83% 29.08 in 10.0 mi SSW 15.0 mph - N/A   Overcast
6:53 AM 37.0 °F 32.4 °F 33.1 °F 86% 29.10 in 10.0 mi Variable 5.8 mph 17.3 mph N/A   Overcast
7:53 AM 37.0 °F 30.4 °F 33.1 °F 86% 29.12 in 10.0 mi SSW 9.2 mph 18.4 mph N/A   Overcast
8:44 AM 37.4 °F 28.5 °F 33.8 °F 87% 29.13 in 6.0 mi SSW 15.0 mph - 0.01 in Rain Light Rain
8:53 AM 37.0 °F 30.4 °F 34.0 °F 89% 29.13 in 8.0 mi South 9.2 mph 20.7 mph 0.01 in Rain Light Rain
9:05 AM 37.4 °F 28.5 °F 33.8 °F 87% 29.13 in 10.0 mi SSW 15.0 mph 20.7 mph 0.00 in Rain Light Rain
9:53 AM 35.1 °F - 33.1 °F 92% 29.15 in 10.0 mi Calm Calm - 0.01 in   Overcast
10:28 AM 37.4 °F 31.4 °F 33.8 °F 87% 29.15 in 10.0 mi SSE 8.1 mph - N/A   Overcast
10:53 AM 37.0 °F 31.6 °F 33.1 °F 86% 29.16 in 7.0 mi Variable 6.9 mph - 0.00 in   Overcast
11:53 AM 37.0 °F 30.4 °F 34.0 °F 89% 29.18 in 8.0 mi South 9.2 mph 23.0 mph 0.01 in Rain Light Rain
12:53 PM 35.1 °F - 33.1 °F 92% 29.21 in 6.0 mi Calm Calm - 0.00 in Rain Light Rain
1:08 PM 35.6 °F 28.0 °F 30.2 °F 81% 29.21 in 2.5 mi ENE 10.4 mph - 0.00 in Snow Light Snow
1:17 PM 35.6 °F - 30.2 °F 81% 29.21 in 1.8 mi Calm Calm - 0.01 in Snow Light Snow
1:28 PM 35.6 °F 26.6 °F 30.2 °F 81% 29.22 in 1.2 mi SW 13.8 mph 23.0 mph 0.01 in Snow Light Snow
1:33 PM 35.6 °F 31.7 °F 30.2 °F 81% 29.23 in 1.0 mi Variable 4.6 mph 23.0 mph 0.02 in Snow Light Snow
1:40 PM 35.6 °F 28.0 °F 30.2 °F 81% 29.22 in 0.8 mi NE 10.4 mph 17.3 mph 0.02 in Snow Light Snow
1:51 PM 33.8 °F 27.0 °F 28.4 °F 81% 29.22 in 1.0 mi ENE 8.1 mph 17.3 mph 0.03 in Snow Light Snow
1:53 PM 34.0 °F 28.8 °F 28.9 °F 82% 29.23 in 1.2 mi East 5.8 mph 17.3 mph 0.03 in Snow Light Snow
1:59 PM 33.8 °F - 30.2 °F 87% 29.23 in 2.0 mi Calm Calm - 0.00 in Snow Light Snow
2:05 PM 33.8 °F - 30.2 °F 87% 29.23 in 1.5 mi Calm Calm - 0.00 in Snow Light Snow
2:07 PM 33.8 °F 29.6 °F 30.2 °F 87% 29.24 in 0.8 mi Variable 4.6 mph - 0.01 in Snow Light Snow
2:19 PM 33.8 °F 29.6 °F 30.2 °F 87% 29.25 in 1.8 mi Variable 4.6 mph - 0.02 in Snow Light Snow
2:25 PM 33.8 °F 28.6 °F 30.2 °F 87% 29.25 in 2.0 mi Variable 5.8 mph - 0.02 in Snow Light Snow
2:41 PM 33.8 °F 29.6 °F 30.2 °F 87% 29.26 in 0.8 mi Variable 4.6 mph - 0.03 in Snow Light Snow
2:44 PM 32.0 °F 28.7 °F 30.2 °F 93% 29.27 in 0.2 mi Variable 3.5 mph - 0.04 in Fog , Snow Heavy Snow
2:53 PM 33.1 °F 28.7 °F 30.0 °F 89% 29.27 in 0.2 mi Variable 4.6 mph - 0.05 in Fog , Snow Snow
2:59 PM 32.0 °F 28.7 °F 30.2 °F 93% 29.27 in 0.8 mi North 3.5 mph - 0.00 in Snow Light Snow
3:30 PM 30.2 °F 21.3 °F 28.4 °F 93% 29.29 in 1.2 mi NE 10.4 mph - 0.02 in Snow Light Snow
3:53 PM 30.9 °F 26.2 °F 28.9 °F 92% 29.31 in 1.2 mi North 4.6 mph - 0.02 in Snow Light Snow
4:19 PM 30.2 °F 20.8 °F 28.4 °F 93% 29.32 in 0.8 mi NE 11.5 mph 19.6 mph 0.02 in Snow Light Snow
4:30 PM 30.2 °F 22.6 °F 28.4 °F 93% 29.32 in 1.0 mi NE 8.1 mph - 0.02 in Snow Light Snow
4:45 PM 30.2 °F 22.6 °F 28.4 °F 93% 29.33 in 1.5 mi NNE 8.1 mph - 0.02 in Snow Light Snow
4:53 PM 30.9 °F 22.8 °F 27.0 °F 85% 29.34 in 2.5 mi NE 9.2 mph - 0.02 in Snow Light Snow
5:03 PM 30.2 °F 22.6 °F 26.6 °F 86% 29.35 in 1.8 mi NNE 8.1 mph - 0.00 in Snow Light Snow
5:24 PM 30.2 °F 20.2 °F 26.6 °F 86% 29.35 in 1.2 mi NE 12.7 mph 17.3 mph 0.00 in Snow Light Snow
5:33 PM 30.2 °F 20.8 °F 26.6 °F 86% 29.36 in 1.8 mi NNE 11.5 mph 18.4 mph 0.01 in Snow Light Snow
5:48 PM 30.2 °F 20.8 °F 26.6 °F 86% 29.36 in 2.0 mi NNE 11.5 mph - 0.01 in Snow Light Snow
5:53 PM 30.9 °F 21.7 °F 25.0 °F 79% 29.37 in 2.5 mi NNE 11.5 mph - 0.01 in Snow Light Snow
6:01 PM 30.2 °F 21.9 °F 24.8 °F 80% 29.37 in 4.0 mi NNE 9.2 mph 18.4 mph 0.00 in Snow Light Snow
6:11 PM 30.2 °F 21.9 °F 24.8 °F 80% 29.38 in 5.0 mi NE 9.2 mph 17.3 mph 0.00 in Snow Light Snow
6:53 PM 32.0 °F 25.6 °F 24.1 °F 73% 29.40 in 10.0 mi North 6.9 mph - 0.00 in   Overcast
7:53 PM 30.9 °F 24.3 °F 23.0 °F 72% 29.44 in 9.0 mi North 6.9 mph - 0.00 in   Overcast
8:16 PM 30.2 °F 22.6 °F 23.0 °F 75% 29.45 in 5.0 mi North 8.1 mph - 0.00 in Snow Light Snow
8:43 PM 30.2 °F 21.3 °F 21.2 °F 69% 29.46 in 9.0 mi NNE 10.4 mph - 0.00 in   Overcast
8:53 PM 30.9 °F 23.5 °F 21.9 °F 69% 29.47 in 10.0 mi NNE 8.1 mph - 0.00 in   Overcast
9:53 PM 30.9 °F 23.5 °F 21.0 °F 67% 29.49 in 10.0 mi North 8.1 mph - N/A   Overcast
10:53 PM 30.0 °F 24.1 °F 21.9 °F 72% 29.51 in 10.0 mi Variable 5.8 mph - N/A   Overcast
11:53 PM 30.9 °F 22.2 °F 19.0 °F 61% 29.53 in 10.0 mi North 10.4 mph - N/A   Overcast